This demonstration page uses our WeatherBlox Daily Observations layout. Learn more.

Left ArrowRight Arrow

Hourly Observations for October 8, 2022

Temp ( °F °C ) Dew Point ( °F °C ) Humidity (%) Winds ( mph kmh ) Pressure ( in mb ) Visibility ( mi km ) Precip ( " mm )
12:15 am 00:15 Partly Cloudy 54 12 46 8 76 76 NNW 12 19 30.19 1022 10 16 0.00 0.00
12:35 am 00:35 Cloudy 54 12 46 8 76 76 N 8 13 30.19 1022 10 16 0.00 0.00
12:55 am 00:55 Partly Cloudy 54 12 46 8 76 76 N 7 11 30.19 1022 10 16 0.00 0.00
1:15 am 01:15 Mostly Cloudy 54 12 46 8 76 76 N 6 9 30.19 1022 10 16 0.00 0.00
1:35 am 01:35 Mostly Cloudy 54 12 46 8 76 76 N 8 13 30.20 1023 10 16 0.00 0.00
1:55 am 01:55 Mostly Cloudy 52 11 45 7 76 76 N 6 9 30.21 1023 10 16 0.00 0.00
2:15 am 02:15 Mostly Cloudy 52 11 45 7 76 76 NNW 6 9 30.21 1023 10 16 0.00 0.00
2:35 am 02:35 Partly Cloudy 52 11 45 7 76 76 N 7 11 30.21 1023 10 16 0.00 0.00
2:55 am 02:55 Partly Cloudy 52 11 45 7 76 76 NNW 7 11 30.21 1023 10 16 0.00 0.00
3:15 am 03:15 Clear 50 10 45 7 82 82 NNW 6 9 30.22 1023 10 16 0.00 0.00
3:35 am 03:35 Clear 50 10 43 6 76 76 NNW 7 11 30.23 1024 10 16 0.00 0.00
3:55 am 03:55 Clear 50 10 43 6 76 76 NNW 9 15 30.23 1024 10 16 0.00 0.00
4:15 am 04:15 Clear 50 10 43 6 76 76 NNW 10 17 30.23 1024 10 16 0.00 0.00
4:35 am 04:35 Clear 48 9 43 6 81 81 NNW 6 9 30.23 1024 10 16 0.00 0.00
4:55 am 04:55 Clear 48 9 43 6 81 81 NNW 7 11 30.24 1024 10 16 0.00 0.00
5:15 am 05:15 Clear 46 8 43 6 87 87 NW 7 11 30.24 1024 10 16 0.00 0.00
5:35 am 05:35 Clear 46 8 43 6 87 87 NNW 7 11 30.25 1024 10 16 0.00 0.00
5:55 am 05:55 Clear 46 8 43 6 87 87 NNW 7 11 30.25 1024 10 16 0.00 0.00
6:15 am 06:15 Clear 46 8 43 6 87 87 NW 12 19 30.25 1024 10 16 0.00 0.00
6:35 am 06:35 Clear 46 8 43 6 87 87 NNW 8 13 30.26 1025 10 16 0.00 0.00
6:55 am 06:55 Clear 45 7 43 6 93 93 NNW 5 7 30.27 1025 10 16 0.00 0.00
7:15 am 07:15 Sunny 45 7 43 6 93 93 NNW 6 9 30.27 1025 10 16 0.00 0.00
7:35 am 07:35 Sunny 45 7 43 6 93 93 NNW 5 7 30.27 1025 10 16 0.00 0.00
7:55 am 07:55 Sunny 45 7 43 6 93 93 NNW 5 7 30.28 1025 10 16 0.00 0.00
8:15 am 08:15 Sunny 46 8 43 6 87 87 N 5 7 30.28 1025 10 16 0.00 0.00
8:35 am 08:35 Sunny 50 10 43 6 76 76 N 3 6 30.29 1026 10 16 0.00 0.00
8:55 am 08:55 Sunny 50 10 43 6 76 76 N 5 7 30.29 1026 10 16 0.00 0.00
9:15 am 09:15 Sunny 52 11 45 7 76 76 NNW 9 15 30.29 1026 10 16 0.00 0.00
9:35 am 09:35 Sunny 52 11 43 6 71 71 N 9 15 30.31 1026 10 16 0.00 0.00
9:55 am 09:55 Mostly Cloudy 54 12 45 7 71 71 NNE 6 9 30.30 1026 10 16 0.00 0.00
10:15 am 10:15 Cloudy 52 11 43 6 71 71 NNW 8 13 30.31 1026 10 16 0.00 0.00
10:35 am 10:35 Cloudy 52 11 43 6 71 71 NNW 10 17 30.31 1026 10 16 0.00 0.00
10:55 am 10:55 Cloudy 54 12 41 5 62 62 N 9 15 30.30 1026 10 16 0.00 0.00
11:15 am 11:15 Cloudy 54 12 41 5 62 62 NNW 17 28 30.30 1026 10 16 0.00 0.00
11:35 am 11:35 Cloudy 55 13 41 5 58 58 NNW 13 20 30.30 1026 10 16 0.00 0.00
11:55 am 11:55 Cloudy 54 12 39 4 58 58 N 12 19 30.30 1026 10 16 0.00 0.00
12:15 pm 12:15 Cloudy 54 12 39 4 58 58 NNW 13 20 30.29 1026 10 16 0.00 0.00
12:35 pm 12:35 Cloudy 54 12 41 5 62 62 N 10 17 30.29 1026 10 16 0.00 0.00
12:55 pm 12:55 Cloudy 54 12 39 4 58 58 NNW 8 13 30.28 1026 10 16 0.00 0.00
1:15 pm 13:15 Cloudy 54 12 41 5 62 62 NNW 10 17 30.28 1026 10 16 0.00 0.00
1:35 pm 13:35 Cloudy 54 12 39 4 58 58 N 7 11 30.27 1025 10 16 0.00 0.00
1:55 pm 13:55 Cloudy 54 12 39 4 58 58 N 7 11 30.26 1025 10 16 0.00 0.00
2:15 pm 14:15 Cloudy 55 13 39 4 54 54 NW 15 24 30.25 1024 10 16 0.00 0.00
2:35 pm 14:35 Cloudy 55 13 41 5 58 58 NW 10 17 30.25 1024 10 16 0.00 0.00
2:55 pm 14:55 Cloudy 55 13 41 5 58 58 NNW 14 22 30.24 1024 10 16 0.00 0.00
3:15 pm 15:15 Cloudy 57 14 41 5 55 55 N 10 17 30.24 1024 10 16 0.00 0.00
3:35 pm 15:35 Cloudy 55 13 41 5 58 58 NNW 14 22 30.24 1024 10 16 0.00 0.00
3:55 pm 15:55 Cloudy 55 13 41 5 58 58 NNW 9 15 30.24 1024 10 16 0.00 0.00
4:15 pm 16:15 Cloudy 55 13 41 5 58 58 WNW 8 13 30.24 1024 10 16 0.00 0.00
4:35 pm 16:35 Cloudy 55 13 41 5 58 58 NW 7 11 30.24 1024 10 16 0.00 0.00
4:55 pm 16:55 Mostly Cloudy 55 13 41 5 58 58 N 8 13 30.23 1024 10 16 0.00 0.00
5:15 pm 17:15 Mostly Cloudy 55 13 39 4 54 54 NW 12 19 30.23 1024 10 16 0.00 0.00
5:35 pm 17:35 Partly Cloudy 54 12 39 4 58 58 N 6 9 30.23 1024 10 16 0.00 0.00
5:55 pm 17:55 Sunny 55 13 39 4 54 54 NNW 9 15 30.22 1023 10 16 0.00 0.00
6:15 pm 18:15 Partly Cloudy 54 12 39 4 58 58 NNW 6 9 30.23 1024 10 16 0.00 0.00
6:35 pm 18:35 Sunny 52 11 39 4 62 62 WNW 5 7 30.24 1024 10 16 0.00 0.00
6:55 pm 18:55 Clear 50 10 39 4 66 66 WNW 5 7 30.24 1024 10 16 0.00 0.00
7:15 pm 19:15 Clear 50 10 39 4 66 66 WNW 3 6 30.25 1024 10 16 0.00 0.00
7:35 pm 19:35 Clear 50 10 41 5 71 71 W 3 6 30.25 1024 10 16 0.00 0.00
7:55 pm 19:55 Clear 46 8 41 5 81 81 Calm 30.25 1024 10 16 0.00 0.00
8:15 pm 20:15 Clear 46 8 41 5 81 81 Calm 30.25 1024 10 16 0.00 0.00
8:35 pm 20:35 Clear 43 6 41 5 93 93 WNW 5 7 30.25 1024 10 16 0.00 0.00
8:55 pm 20:55 Clear 45 7 41 5 87 87 Calm 30.25 1024 10 16 0.00 0.00
9:15 pm 21:15 Clear 45 7 41 5 87 87 Calm 30.25 1024 10 16 0.00 0.00
9:35 pm 21:35 Clear 45 7 41 5 87 87 Calm 30.25 1024 10 16 0.00 0.00
9:55 pm 21:55 Clear 43 6 39 4 87 87 WNW 3 6 30.25 1024 10 16 0.00 0.00
10:15 pm 22:15 Clear 45 7 41 5 87 87 SSW 3 6 30.25 1024 10 16 0.00 0.00
10:35 pm 22:35 Clear 43 6 41 5 93 93 WSW 3 6 30.26 1025 10 16 0.00 0.00
10:55 pm 22:55 Clear 41 5 39 4 93 93 WNW 5 7 30.27 1025 10 16 0.00 0.00
11:15 pm 23:15 Clear 45 7 39 4 81 81 NNW 6 9 30.25 1024 10 16 0.00 0.00
11:35 pm 23:35 Clear 45 7 37 3 76 76 Calm 30.26 1025 10 16 0.00 0.00
11:55 pm 23:55 Clear 41 5 39 4 93 93 W 3 6 30.27 1025 10 16 0.00 0.00

Powered by AerisWeather